Flag for Argentina Weather past 2 weeks in Ushuaia, Tierra del Fuego, Argentina

Now
41 °F

Scattered clouds.


Feels Like: 39 °F
Forecast: 28 / 43 °F
Wind: 3 mph from West

Location: Ushuaia Aerodrome

Current Time: May 27, 2015 at 9:32:52 AM

Latest Report: May 27, 2015 at 9:00 AM


Visibility: N/A

Pressure: 29.68 "Hg

Humidity: 76%

Dew point: 34 °F

Location of UshuaiaLocation

Historic Weather in Ushuaia — Graph

°F

Ushuaia temperature yesterday

Maximum temperature yesterday: 32 °F (at 7:00 PM)
Minimum temperature yesterday: 25 °F (at 6:00 AM)
Average temperature yesterday: 28 °F

Past Weeks' High & Low Weather Summary

 TemperatureHumidityPressure
High52 °F (May 18, 12:00 PM)100% (May 12, 8:00 PM)29.89 "Hg (May 12, 8:00 PM)
Low25 °F (May 26, 6:00 AM)50% (May 18, 11:00 AM)28.56 "Hg (May 22, 1:00 AM)
Average39 °F83%29.16 "Hg
* Reported May 12 8:00 AM — May 27 8:00 AM, Ushuaia, Weather by CustomWeather, © 2015

Note: Actual official high and low records may vary slightly from our data, if they occured in-between our weather recording intervals... More about our weather records

Advertising

Ushuaia weather history for previous 24 hours

 ConditionsComfort  
Time TempWeatherWind HumidityBarometerVisibility
8:00 AM
Wed, May 27
41 °FPassing clouds.2 mph76%29.65 "HgN/A
7:00 AM43 °FPassing clouds.3 mph71%29.65 "HgN/A
6:00 AM43 °FPassing clouds.5 mph71%29.62 "HgN/A
4:00 AM43 °FPassing clouds.No wind71%29.62 "HgN/A
3:00 AM39 °FPassing clouds.3 mph70%29.62 "HgN/A
2:00 AM36 °FPassing clouds.5 mph70%29.65 "HgN/A
1:00 AM36 °FPassing clouds.5 mph70%29.68 "HgN/A
10:00 PM
Tue, May 26
32 °FPassing clouds.No wind75%29.74 "HgN/A
9:00 PM32 °FPassing clouds.No wind75%29.77 "HgN/A
8:00 PM30 °FPassing clouds.N/A80%29.77 "HgN/A
7:00 PM32 °FPassing clouds.No wind75%29.80 "HgN/A
6:00 PM30 °FPartly cloudy.3 mph80%29.80 "HgN/A
5:00 PM30 °FPartly cloudy.3 mph80%29.80 "HgN/A
4:00 PM30 °FMore clouds than sun.No wind80%29.80 "HgN/A
3:00 PM30 °FMore clouds than sun.No wind80%29.83 "HgN/A
2:00 PM28 °FMore clouds than sun.3 mph80%29.83 "HgN/A
1:00 PM28 °FMore clouds than sun.No wind80%29.86 "HgN/A
11:00 AM25 °FScattered clouds.7 mph86%29.86 "HgN/A
10:00 AM25 °FScattered clouds.8 mph86%29.86 "HgN/A
9:00 AM25 °FSunny.8 mph86%29.86 "Hg10 mi
Weather by CustomWeather, © 2015

See weather overviewHow to use our weather pages